Location: F?ge?el
(45.8833°N, 22.5833°E)
Time: 12:30:04
(UTC+00:00)

Landsat 7 - Pass Details

Date: 17 November 2025
Orbit: 680 x 682 km, 97.9° (Epoch: 06 December)

Event Time Altitude Azimuth Distance (km) Brightness Sun altitude
Rises 16:09:22 0° 169° (SSE) 3,029 7.1 -12.7°
Reaches altitude 10° 16:11:36 10° 170° (S) 2,118 6.4 -13.1°
Maximum altitude 16:16:15 78° 257° (WSW) 702 3.9 -13.9°
Drops below altitude 10° 16:20:55 10° 344° (NNW) 2,133 6.3 -14.7°
Sets 16:23:10 0° 346° (NNW) 3,053 7.1 -15.1°
